• In Deutschland
  • Länderverzeichnis
  • Für 7 Tage
  • Wassertemperatur
  • Satellitenkarten
  • Wetterkarte
  • Widgets
  • user-avatar
    Anmelden

    Stündliche Wetter Mayrhofen

    Heute, 26 März, Sonntag

    Zeit Temperatur Niederschläge Wind Luftdruck Luftfeuchtigkeit
    00:00 -1°C° 0 mm 1 m/S 615 mmHg 93%
    01:00 -1°C° 0 mm 1 m/S 614 mmHg 94%
    02:00 -2°C° 0 mm 1 m/S 614 mmHg 94%
    03:00 -2°C° 0 mm 1 m/S 614 mmHg 94%
    04:00 -3°C° 0 mm 1 m/S 613 mmHg 94%
    05:00 -2°C° 0 mm 1 m/S 614 mmHg 93%
    06:00 -2°C° 0 mm 1 m/S 614 mmHg 92%
    07:00 -2°C° 0 mm 1 m/S 614 mmHg 90%
    08:00 0°C° 0 mm 1 m/S 615 mmHg 88%
    09:00 +3°C° 0 mm 1 m/S 616 mmHg 86%
    10:00 +4°C° 0 mm 2 m/S 617 mmHg 84%
    11:00 +4°C° 0,1 mm 2 m/S 617 mmHg 84%
    12:00 +4°C° 0,1 mm 2 m/S 617 mmHg 84%
    13:00 +4°C° 0,1 mm 2 m/S 617 mmHg 84%
    14:00 +3°C° 0,1 mm 2 m/S 617 mmHg 84%
    15:00 +3°C° 0,1 mm 2 m/S 617 mmHg 84%
    16:00 +3°C° 0,1 mm 2 m/S 617 mmHg 84%
    17:00 +2°C° 0,1 mm 2 m/S 617 mmHg 88%
    18:00 +1°C° 0,1 mm 1 m/S 617 mmHg 92%
    19:00 0°C° 0,1 mm 1 m/S 617 mmHg 95%
    20:00 -1°C° 0 mm 1 m/S 617 mmHg 96%
    21:00 -2°C° 0 mm 1 m/S 617 mmHg 96%
    22:00 -3°C° 0 mm 1 m/S 617 mmHg 96%
    23:00 -4°C° 0 mm 1 m/S 617 mmHg 96%

    Morgen, 27 März, Montag

    Zeit Temperatur Niederschläge Wind Luftdruck Luftfeuchtigkeit
    00:00 -4°C° 0 mm 1 m/S 617 mmHg 95%
    01:00 -4°C° 0 mm 1 m/S 617 mmHg 94%
    02:00 -4°C° 0 mm 1 m/S 617 mmHg 94%
    03:00 -4°C° 0 mm 1 m/S 617 mmHg 93%
    04:00 -4°C° 0 mm 1 m/S 617 mmHg 92%
    05:00 -3°C° 0 mm 1 m/S 618 mmHg 88%
    06:00 -3°C° 0 mm 1 m/S 618 mmHg 85%
    07:00 -2°C° 0 mm 1 m/S 618 mmHg 82%
    08:00 +1°C° 0 mm 1 m/S 619 mmHg 75%
    09:00 +4°C° 0 mm 1 m/S 620 mmHg 69%
    10:00 +6°C° 0 mm 1 m/S 621 mmHg 62%
    11:00 +7°C° 0 mm 1 m/S 621 mmHg 60%
    12:00 +8°C° 0 mm 1 m/S 621 mmHg 58%
    13:00 +9°C° 0 mm 1 m/S 621 mmHg 56%
    14:00 +9°C° 0 mm 1 m/S 621 mmHg 58%
    15:00 +9°C° 0 mm 1 m/S 621 mmHg 61%
    16:00 +8°C° 0 mm 1 m/S 621 mmHg 64%
    17:00 +5°C° 0 mm 1 m/S 620 mmHg 73%
    18:00 +2°C° 0 mm 1 m/S 618 mmHg 83%
    19:00 -1°C° 0 mm 1 m/S 617 mmHg 92%
    20:00 -1°C° 0 mm 1 m/S 618 mmHg 91%
    21:00 -1°C° 0 mm 1 m/S 618 mmHg 91%
    22:00 -1°C° 0 mm 1 m/S 619 mmHg 91%
    23:00 -1°C° 0 mm 1 m/S 619 mmHg 91%

    übermorgen, 28 März, Dienstag

    Zeit Temperatur Niederschläge Wind Luftdruck Luftfeuchtigkeit
    00:00 -1°C° 0 mm 1 m/S 619 mmHg 91%
    01:00 -1°C° 0 mm 1 m/S 619 mmHg 91%
    02:00 -2°C° 0 mm 1 m/S 619 mmHg 91%
    03:00 -2°C° 0 mm 1 m/S 618 mmHg 91%
    04:00 -3°C° 0 mm 1 m/S 618 mmHg 91%
    05:00 -2°C° 0 mm 1 m/S 618 mmHg 89%
    06:00 -1°C° 0 mm 1 m/S 619 mmHg 87%
    07:00 -1°C° 0 mm 1 m/S 619 mmHg 85%
    08:00 +2°C° 0 mm 1 m/S 620 mmHg 78%
    09:00 +5°C° 0 mm 1 m/S 621 mmHg 72%
    10:00 +8°C° 0 mm 1 m/S 622 mmHg 66%
    11:00 +8°C° 0 mm 1 m/S 622 mmHg 64%
    12:00 +9°C° 0 mm 1 m/S 622 mmHg 62%
    13:00 +9°C° 0 mm 1 m/S 623 mmHg 61%
    14:00 +9°C° 0 mm 1 m/S 622 mmHg 64%
    15:00 +8°C° 0 mm 1 m/S 622 mmHg 68%
    16:00 +8°C° 0 mm 1 m/S 622 mmHg 71%
    17:00 +6°C° 0 mm 1 m/S 621 mmHg 78%
    18:00 +3°C° 0 mm 1 m/S 620 mmHg 86%
    19:00 +1°C° 0 mm 1 m/S 619 mmHg 93%
    20:00 -1°C° 0 mm 0 m/S 619 mmHg 94%
    21:00 -1°C° 0 mm 0 m/S 619 mmHg 95%
    22:00 -2°C° 0 mm 0 m/S 619 mmHg 96%
    23:00 -2°C° 0 mm 0 m/S 619 mmHg 96%

    29 März, Mittwoch

    Zeit Temperatur Niederschläge Wind Luftdruck Luftfeuchtigkeit
    00:00 -2°C° 0 mm 0 m/S 619 mmHg 96%
    01:00 -2°C° 0 mm 0 m/S 619 mmHg 96%
    02:00 -2°C° 0 mm 0 m/S 619 mmHg 96%
    03:00 -1°C° 0 mm 1 m/S 619 mmHg 96%
    04:00 0°C° 0 mm 1 m/S 619 mmHg 96%
    05:00 0°C° 0 mm 1 m/S 620 mmHg 95%
    06:00 +1°C° 0 mm 1 m/S 620 mmHg 94%
    07:00 +2°C° 0 mm 1 m/S 621 mmHg 93%
    08:00 +4°C° 0 mm 1 m/S 621 mmHg 85%
    09:00 +6°C° 0 mm 1 m/S 622 mmHg 77%
    10:00 +8°C° 0 mm 1 m/S 623 mmHg 69%
    11:00 +8°C° 0 mm 1 m/S 623 mmHg 66%
    12:00 +9°C° 0 mm 1 m/S 623 mmHg 64%
    13:00 +10°C° 0 mm 1 m/S 623 mmHg 61%
    14:00 +10°C° 0,1 mm 1 m/S 622 mmHg 63%
    15:00 +9°C° 0,1 mm 1 m/S 622 mmHg 65%
    16:00 +9°C° 0,1 mm 1 m/S 622 mmHg 68%
    17:00 +6°C° 0,1 mm 1 m/S 620 mmHg 76%
    18:00 +3°C° 0,1 mm 1 m/S 619 mmHg 84%
    19:00 -1°C° 0,1 mm 0 m/S 618 mmHg 91%
    20:00 -1°C° 0 mm 0 m/S 618 mmHg 92%
    21:00 -1°C° 0 mm 0 m/S 618 mmHg 92%
    22:00 -1°C° 0 mm 0 m/S 619 mmHg 93%
    23:00 -1°C° 0 mm 0 m/S 619 mmHg 91%

    30 März, Donnerstag

    Zeit Temperatur Niederschläge Wind Luftdruck Luftfeuchtigkeit
    00:00 -1°C° 0 mm 0 m/S 619 mmHg 89%
    01:00 0°C° 0 mm 1 m/S 619 mmHg 88%
    02:00 -1°C° 0 mm 1 m/S 618 mmHg 86%
    03:00 -1°C° 0 mm 1 m/S 618 mmHg 85%
    04:00 -1°C° 0 mm 1 m/S 618 mmHg 84%
    05:00 0°C° 0 mm 1 m/S 619 mmHg 82%
    06:00 +1°C° 0 mm 1 m/S 619 mmHg 80%
    07:00 +2°C° 0 mm 1 m/S 620 mmHg 79%
    08:00 +4°C° 0 mm 1 m/S 620 mmHg 72%
    09:00 +6°C° 0 mm 1 m/S 621 mmHg 65%
    10:00 +9°C° 0 mm 1 m/S 622 mmHg 58%
    11:00 +10°C° 0 mm 1 m/S 622 mmHg 55%
    12:00 +11°C° 0 mm 1 m/S 622 mmHg 52%
    13:00 +11°C° 0 mm 1 m/S 622 mmHg 49%
    14:00 +10°C° 0 mm 2 m/S 622 mmHg 51%
    15:00 +10°C° 0 mm 2 m/S 621 mmHg 53%
    16:00 +9°C° 0 mm 2 m/S 621 mmHg 55%
    17:00 +7°C° 0 mm 1 m/S 619 mmHg 65%
    18:00 +5°C° 0 mm 1 m/S 618 mmHg 75%
    19:00 +2°C° 0 mm 1 m/S 617 mmHg 85%
    20:00 +2°C° 0 mm 1 m/S 617 mmHg 85%
    21:00 -1°C° 0 mm 2 m/S 618 mmHg 85%
    22:00 -1°C° 0 mm 2 m/S 618 mmHg 85%
    23:00 -1°C° 0 mm 2 m/S 618 mmHg 86%

    31 März, Freitag

    Zeit Temperatur Niederschläge Wind Luftdruck Luftfeuchtigkeit
    00:00 -1°C° 0 mm 2 m/S 618 mmHg 86%
    01:00 -1°C° 0 mm 2 m/S 618 mmHg 87%
    02:00 -2°C° 0 mm 2 m/S 617 mmHg 88%
    03:00 -2°C° 0 mm 2 m/S 617 mmHg 88%
    04:00 -2°C° 0 mm 2 m/S 617 mmHg 89%
    05:00 -1°C° 0 mm 2 m/S 617 mmHg 87%
    06:00 -1°C° 0 mm 2 m/S 617 mmHg 86%
    07:00 -1°C° 0 mm 2 m/S 617 mmHg 84%
    08:00 +4°C° 0 mm 1 m/S 618 mmHg 74%
    09:00 +6°C° 0 mm 1 m/S 618 mmHg 64%
    10:00 +8°C° 0 mm 1 m/S 619 mmHg 54%
    11:00 +9°C° 0 mm 1 m/S 619 mmHg 53%
    12:00 +8°C° 0 mm 2 m/S 618 mmHg 51%
    13:00 +9°C° 0 mm 2 m/S 618 mmHg 50%
    14:00 +8°C° 0,2 mm 2 m/S 618 mmHg 54%
    15:00 +8°C° 0,2 mm 2 m/S 617 mmHg 57%
    16:00 +8°C° 0,2 mm 2 m/S 616 mmHg 61%
    17:00 +5°C° 0,1 mm 2 m/S 615 mmHg 71%
    18:00 +3°C° 0,1 mm 2 m/S 614 mmHg 81%
    19:00 +1°C° 0,1 mm 2 m/S 613 mmHg 91%
    20:00 +1°C° 0 mm 2 m/S 614 mmHg 92%
    21:00 +1°C° 0 mm 2 m/S 614 mmHg 92%
    22:00 +1°C° 0 mm 2 m/S 614 mmHg 93%
    23:00 -1°C° 0 mm 2 m/S 614 mmHg 93%
    Mehr zeigen